{"data":{"norad_id":63548,"intl_designator":"2025-075A","name":"STARLINK-11669 [DTC]","alt_names":[],"object_type":"PAYLOAD","status":"ACTIVE","operator":null,"country":"US","launch_date":"2025-04-13","launch_site_code":"AFETR","launch_vehicle":null,"mission":null,"orbit_class":"UNKNOWN","rcs_meters":null,"size_class":null,"mass_kg":null,"dimensions":null,"purposes":["comms"],"wikipedia_slug":null,"has_3d_model":false,"image_url":null,"decayed_at":null,"tle_current":{"epoch":"2026-05-25T02:49:42.456000Z","epoch_age_seconds":68817,"freshness":"FRESH","line1":"1 63548U 25075A   26145.11785250  .00153066  00000+0  11717-2 0  9991","line2":"2 63548  43.0008  52.6842 0002130 269.0832  90.9791 15.70897184 65271","mean_motion":15.70897184,"eccentricity":0.000213,"inclination_deg":43.0008,"raan_deg":52.6842,"arg_perigee_deg":269.0832,"mean_anomaly_deg":90.9791,"bstar":0.0011717,"rev_number":6527,"period_min":91.667361471316,"perigee_km":354.89718213556,"apogee_km":357.76606576937,"semimajor_km":6734.4686239525,"source":"CELESTRAK","updated_at":"2026-05-25T13:38:20.039846Z"}}}